RH
21 20 20 20 19 19 19 19 19 19 20 20 20 21 21 22 23 24 25 26 27 28 30 31 31 32 32 32 32 32 32 32 32 33 34 35 37 39 42 43 45 46 46 47 48 48 49 50 50 51 51 50 48 46 44 43 42 42 41 40 40 40 43 47 51 54 56 58 59 58 58 60 62 65 68 71 73 74 73 72 71 71 71 72 72 71
18 18 17 18 18 17 17 17 17 17 17 17 17 17 17 18 18 19 20 21 23 25 26 28 29 30 30 31 31 31 31 31 31 31 30 31 32 33 35 36 37 38 39 40 41 41 42 43 44 46 47 47 47 46 44 43 42 41 40 40 39 39 39 42 46 50 55 59 59 58 58 60 62 65 67 70 72 73 73 72 71 70 71 71 70 69
16 16 16 16 16 16 16 15 15 15 15 15 15 14 14 14 14 14 15 15 17 18 20 22 24 26 27 28 29 30 31 32 32 32 32 32 32 32 33 33 33 33 34 34 34 35 35 36 37 39 41 43 44 45 44 43 42 41 40 39 39 38 38 39 42 47 52 57 58 58 58 59 62 65 67 69 71 73 73 73 73 73 73 72 72 70
15 16 16 16 16 16 16 16 15 15 15 15 14 13 13 13 12 12 12 12 12 13 14 16 18 20 21 23 25 27 28 30 32 33 34 35 35 35 34 34 33 32 31 31 31 30 30 30 31 32 34 37 39 41 42 41 41 40 40 39 38 38 38 38 39 42 46 52 55 56 56 58 60 62 65 67 70 72 73 75 76 77 76 75 75 73
16 16 17 17 17 16 16 16 16 16 16 16 15 15 14 14 14 13 12 12 11 11 11 11 12 14 15 17 19 21 23 26 28 30 33 35 36 37 37 36 35 33 32 31 29 28 27 27 27 27 27 29 32 34 37 38 39 39 38 38 38 38 38 38 37 38 41 47 51 52 53 56 59 62 63 65 67 70 72 75 78 79 79 76 75 74
17 17 18 18 18 17 17 17 17 17 17 17 18 18 18 17 17 16 15 15 14 12 12 11 10 10 11 12 13 15 17 20 22 25 28 31 34 37 39 40 40 38 35 32 30 29 27 26 25 25 24 24 26 28 30 33 35 36 37 37 37 37 37 37 37 37 38 43 47 49 51 55 59 62 64 65 67 69 70 74 77 79 81 78 75 73
19 18 19 19 19 19 18 18 18 18 18 18 19 19 20 20 19 19 18 18 17 15 14 12 11 10 9 9 9 10 12 14 16 19 22 25 29 33 37 42 45 45 41 36 33 31 29 28 27 25 24 23 23 24 25 28 31 33 34 35 35 35 36 36 36 36 37 40 43 47 50 54 59 62 64 66 68 69 70 71 74 78 80 79 76 72
22 21 22 22 21 21 20 19 19 19 18 19 19 20 20 20 19 19 19 18 17 17 16 15 13 12 11 10 10 9 9 10 11 13 15 19 23 27 31 38 44 47 46 41 37 35 33 31 30 28 26 25 23 23 23 25 27 29 31 32 33 34 34 35 35 35 35 37 40 44 48 53 58 62 64 67 69 71 70 69 72 75 79 77 74 70
26 26 25 25 24 24 23 22 21 20 20 19 19 19 19 19 19 18 18 18 18 18 18 17 17 17 16 16 15 14 14 14 13 14 14 16 18 21 24 29 35 40 42 41 40 39 37 35 33 31 29 27 25 24 23 24 25 27 29 30 31 32 33 34 34 34 35 35 38 41 45 50 56 60 64 68 72 73 71 69 71 74 77 75 72 67
28 28 28 28 27 26 25 25 24 23 23 21 21 20 19 18 18 18 18 19 19 19 19 19 19 19 20 20 20 19 19 19 19 19 19 18 19 19 20 23 27 31 35 37 39 40 40 39 37 34 32 30 28 26 25 24 25 26 28 29 31 32 33 33 34 34 34 34 36 38 41 46 53 60 66 71 74 75 73 71 71 73 74 72 68 65
29 29 29 29 29 28 28 27 26 26 26 25 24 22 21 20 19 19 19 19 19 19 19 19 18 18 19 19 19 19 19 19 19 20 20 21 21 21 21 22 24 26 30 34 37 40 41 41 40 38 36 33 30 28 26 25 25 26 28 30 32 33 34 34 34 34 34 34 35 36 38 41 47 56 65 71 75 76 74 71 69 67 67 64 62 61
30 30 30 30 29 29 28 28 28 27 27 26 25 24 23 22 21 20 20 20 20 19 18 18 17 17 16 16 16 16 17 17 17 19 20 22 23 24 24 24 25 27 29 33 36 39 40 41 41 40 38 34 31 29 27 26 26 27 29 30 33 34 36 35 35 34 34 34 35 36 37 38 41 46 56 63 68 71 73 70 66 63 60 58 57 57
30 30 29 29 29 29 28 28 27 27 27 26 25 25 24 23 23 23 22 21 21 20 20 19 18 18 17 16 15 15 15 16 17 19 21 22 23 24 24 25 26 28 31 37 41 44 44 43 42 41 38 35 32 29 28 27 27 27 29 30 33 35 37 37 36 36 35 36 36 37 38 38 38 41 46 52 57 62 66 65 64 61 59 56 54 54
29 29 29 29 28 28 29 28 27 27 26 26 25 25 24 24 24 24 24 23 22 22 21 21 20 20 20 19 18 16 16 17 18 19 21 23 24 24 25 25 26 28 33 40 45 49 52 52 49 45 40 36 32 31 29 28 28 28 29 31 33 35 37 37 37 36 36 36 37 37 38 39 39 40 41 44 49 54 59 59 59 59 57 55 52 51
29 29 29 29 28 28 29 28 27 26 26 26 26 26 25 25 25 24 24 24 23 23 23 23 23 23 24 23 22 21 20 19 19 20 20 22 23 25 26 27 28 31 35 39 43 48 53 58 59 56 49 41 35 32 31 30 30 30 31 32 33 35 38 38 38 38 38 37 37 38 39 40 40 40 41 42 44 49 54 56 57 56 56 54 50 47
28 29 29 28 28 28 28 28 27 26 26 27 27 27 27 26 26 25 25 25 24 25 25 26 26 26 26 26 26 26 25 24 23 23 22 21 21 22 26 28 32 37 42 43 43 44 47 52 57 60 60 52 43 36 33 32 32 33 33 34 34 35 37 38 39 39 39 38 38 38 39 40 40 40 41 42 43 46 50 53 54 54 53 50 46 44
29 29 29 29 29 29 28 27 27 27 27 28 29 29 28 28 27 27 27 26 27 27 28 30 31 30 29 28 28 29 29 29 28 27 25 21 18 17 22 26 31 36 44 48 49 49 47 47 50 54 60 60 55 48 40 36 35 35 35 36 36 36 37 39 40 39 39 39 39 39 39 39 40 40 41 42 44 45 47 49 50 49 47 44 42 42
29 30 30 29 29 29 28 28 28 28 28 29 29 29 29 29 29 29 29 29 30 31 33 34 34 33 33 31 30 30 32 32 31 29 27 24 20 17 17 21 25 30 37 44 47 49 50 49 48 47 51 57 61 60 54 46 42 39 38 38 38 38 39 40 41 41 42 41 40 40 39 39 40 40 41 43 44 45 45 45 45 44 43 41 41 42
30 30 30 30 29 29 29 29 29 28 28 28 28 29 30 30 31 31 31 32 34 36 38 38 38 37 37 35 34 33 34 34 33 31 30 28 24 20 17 18 20 23 28 35 41 46 48 49 49 47 46 51 57 63 66 61 55 49 45 42 40 40 40 41 41 42 44 44 43 42 41 40 40 41 42 45 46 46 46 45 44 43 42 42 43 45
30 30 30 30 29 29 29 29 28 28 28 28 30 31 31 32 33 34 34 36 38 40 42 42 42 42 44 42 39 36 36 36 35 34 33 31 28 24 20 19 19 19 21 25 32 40 46 47 48 49 49 51 56 62 68 69 68 64 58 50 45 41 39 38 39 40 43 45 45 44 43 42 42 42 43 45 46 47 47 46 46 47 47 47 47 48
31 30 30 30 30 30 29 30 30 30 29 31 32 34 34 35 36 37 38 41 42 43 44 45 46 47 49 48 45 42 39 38 37 37 37 35 32 28 23 22 21 20 20 20 24 32 42 46 47 48 48 49 52 58 65 68 69 69 67 61 53 45 40 38 37 38 40 43 45 46 46 44 44 43 44 46 47 48 48 49 51 52 53 52 51 50
31 31 30 31 31 31 31 31 32 32 33 35 36 37 38 39 40 41 43 45 47 47 48 48 48 49 50 49 48 46 44 43 42 42 42 39 35 30 26 24 24 23 21 18 20 24 33 41 45 46 46 47 48 52 59 64 67 68 68 67 62 54 46 41 38 37 38 41 43 46 47 47 47 47 47 48 49 49 50 51 53 54 55 53 51 51
30 29 29 30 31 32 33 34 35 36 37 39 40 41 41 42 43 44 46 48 49 50 50 50 49 49 49 49 47 45 44 44 45 45 46 44 41 36 30 27 25 24 22 19 18 19 25 34 41 45 45 46 46 48 52 58 62 66 67 68 66 62 54 47 43 40 39 40 42 44 46 48 50 50 50 52 53 54 54 55 56 56 55 52 50 50
29 28 28 28 30 32 35 37 39 41 42 44 45 44 44 44 44 44 45 46 47 48 49 49 49 48 47 45 43 42 40 42 45 48 50 48 45 41 36 31 27 24 22 19 17 16 18 27 36 42 44 45 45 46 47 52 57 61 65 67 68 66 62 55 49 44 42 41 41 43 45 48 51 54 54 55 57 58 59 59 58 58 56 53 51 52
31 31 31 32 33 36 38 42 45 46 48 49 48 46 45 45 45 44 43 43 43 44 45 46 47 48 49 48 46 44 41 42 46 50 51 50 49 45 40 34 30 26 23 19 16 13 13 20 29 38 44 45 45 46 46 48 51 56 60 64 67 68 67 62 56 51 46 44 43 43 44 47 52 56 58 58 59 60 61 61 61 60 58 55 54 55
33 34 35 37 39 41 43 45 47 48 49 49 47 46 46 47 46 45 44 42 40 40 40 42 43 44 46 48 48 47 44 44 47 50 51 51 50 47 43 38 33 28 24 20 15 12 10 14 21 31 39 44 46 46 46 45 47 50 55 60 64 68 70 68 64 58 52 48 46 44 44 46 51 56 60 59 59 60 63 64 64 63 61 59 58 59
35 37 39 41 42 44 44 44 45 47 49 50 50 50 50 49 49 48 46 42 40 38 39 40 40 41 44 47 48 47 46 45 46 49 52 53 52 49 44 39 35 32 29 25 20 15 12 12 16 22 30 38 44 47 47 45 44 46 50 56 60 64 68 70 68 64 59 54 50 47 45 46 49 54 59 59 59 61 64 65 65 65 64 62 62 62
36 38 41 42 44 46 47 47 47 48 49 50 51 52 53 52 52 51 48 45 43 42 41 41 40 41 43 45 47 47 46 45 47 50 55 56 54 50 45 41 38 36 34 32 28 24 18 15 13 15 19 27 36 43 47 44 42 41 43 49 54 58 63 68 69 67 63 58 54 50 48 47 48 51 56 58 60 63 65 66 67 66 65 65 64 64
37 39 40 42 45 48 50 51 51 51 51 52 54 55 56 56 55 54 54 53 53 52 50 47 45 43 43 44 45 46 46 47 49 52 56 57 55 52 48 46 44 43 42 39 36 31 26 20 16 14 15 20 27 34 40 40 39 36 35 39 43 48 53 60 66 68 65 60 56 52 49 48 48 49 53 56 61 64 67 68 68 68 67 67 66 66
38 39 40 44 49 52 54 54 53 52 52 54 56 58 58 58 59 60 62 64 64 63 61 58 55 51 49 47 46 45 45 47 50 53 55 54 53 51 50 51 53 54 53 51 48 44 38 32 27 23 21 22 24 28 32 35 35 32 29 29 33 37 40 50 59 66 67 62 58 54 51 49 49 49 51 54 60 65 68 70 71 71 70 69 68 67
40 40 43 48 53 57 58 56 53 52 52 55 57 59 59 60 62 65 68 70 71 70 70 68 65 62 60 58 55 52 48 48 51 54 56 55 52 50 50 52 56 58 60 59 57 54 51 46 42 37 33 30 28 27 29 33 33 31 27 25 25 27 31 41 53 63 67 65 61 57 54 51 50 49 50 53 58 63 69 70 71 72 73 71 70 69
42 44 46 51 54 57 57 54 51 50 51 54 56 58 60 62 65 67 69 70 71 72 71 71 69 69 68 68 67 65 61 58 59 61 64 63 59 54 50 50 54 58 62 62 61 59 57 54 50 47 45 42 38 34 31 32 32 31 29 25 24 24 27 40 53 63 66 66 64 61 58 54 51 50 50 52 56 61 67 69 71 72 74 73 72 70
44 46 48 50 51 51 51 50 50 50 52 54 56 58 61 65 68 70 71 71 71 70 70 70 69 68 68 69 70 71 70 68 68 69 71 70 66 61 54 51 52 55 60 65 66 65 63 59 56 52 50 49 47 44 38 34 32 30 29 26 25 25 28 43 56 64 65 67 67 66 62 57 54 51 50 51 55 59 65 68 70 73 75 76 75 73
45 47 48 49 48 48 48 49 51 53 55 56 57 59 62 66 69 71 71 70 69 67 67 66 66 66 65 66 67 68 69 70 71 73 73 72 69 65 58 54 53 55 61 68 72 72 70 67 64 60 54 51 49 47 44 37 32 28 27 26 25 25 29 44 56 64 66 68 69 69 65 61 57 53 51 51 53 57 62 66 68 71 73 75 75 74
46 47 49 49 49 48 49 51 54 56 58 60 61 62 64 66 68 68 67 65 64 63 62 62 62 63 64 64 65 67 68 68 70 71 72 72 72 70 65 62 62 65 70 74 75 76 75 74 71 66 61 56 51 48 46 41 35 30 25 24 24 25 29 43 54 61 65 67 69 69 67 64 60 56 52 51 52 55 59 63 66 68 71 74 75 75
47 50 51 51 51 51 51 54 56 59 61 62 63 64 66 66 66 65 63 62 61 61 62 62 62 62 62 64 67 69 69 67 66 67 69 71 73 73 71 68 68 69 72 74 76 77 77 76 73 70 67 63 58 53 49 47 43 36 28 23 21 23 29 41 51 58 62 65 67 68 69 67 63 60 55 52 51 52 56 60 63 65 68 72 75 76
49 52 54 55 55 54 54 56 58 60 61 62 64 64 65 64 63 62 60 61 61 63 64 64 64 62 61 62 64 64 62 61 61 64 67 71 73 74 73 70 67 67 68 71 72 73 72 72 71 70 70 68 65 61 56 53 50 44 35 28 23 23 27 38 48 55 59 62 65 68 70 69 67 63 59 55 52 51 52 57 60 63 66 70 73 76
51 54 56 57 57 57 56 57 57 58 59 61 62 62 62 61 60 60 60 61 63 64 66 65 64 62 61 60 59 57 55 55 56 59 62 65 68 70 70 69 67 65 65 67 69 69 69 68 68 67 67 67 66 65 61 59 57 53 47 39 33 28 28 34 42 50 56 60 64 68 71 72 70 67 63 58 54 51 51 53 56 60 64 69 72 74
53 55 57 58 58 58 57 57 57 57 58 59 60 60 60 60 60 61 62 63 63 64 65 64 64 63 62 60 59 57 55 53 52 52 53 55 58 61 63 63 63 62 62 65 67 68 68 67 66 66 65 66 67 67 65 64 62 59 56 50 42 36 32 33 36 42 49 55 60 65 70 72 72 71 67 62 58 55 54 54 55 57 60 64 68 72
53 55 58 59 58 58 57 57 57 57 58 59 60 61 61 62 63 64 65 64 64 63 62 63 63 62 61 60 59 57 55 53 51 50 50 50 51 53 55 56 56 56 57 60 63 66 68 68 67 65 64 65 65 67 70 69 66 64 62 58 53 46 41 37 35 36 41 47 53 59 64 69 71 72 70 65 61 58 58 60 61 61 59 61 64 69
53 55 58 59 58 56 55 55 56 57 59 60 61 63 64 65 66 67 67 66 64 63 62 62 62 62 62 60 59 58 57 55 54 52 51 50 50 50 51 51 51 51 52 55 59 63 67 68 67 66 64 63 63 65 69 70 69 68 66 62 57 52 48 45 41 39 39 43 46 50 56 61 66 69 69 66 63 60 59 64 69 72 69 65 66 68
53 54 56 57 57 55 54 54 54 55 56 58 60 62 64 65 66 66 67 67 66 64 63 62 62 62 60 59 58 58 58 57 56 55 53 51 50 49 48 48 48 48 49 51 53 57 61 65 67 66 65 64 63 64 65 67 68 69 67 63 59 55 52 51 47 44 43 46 47 47 47 52 57 61 64 63 62 60 59 63 69 74 77 75 73 72
52 52 53 55 56 55 54 53 52 52 53 54 56 58 60 61 62 63 65 65 65 64 63 62 62 60 58 55 53 53 53 54 54 54 53 51 49 47 46 45 44 44 46 48 50 52 54 59 63 65 65 64 63 63 63 64 66 68 67 63 62 60 58 56 51 46 45 45 44 42 41 44 48 52 56 58 58 58 58 60 65 71 76 77 78 77
53 52 52 54 56 56 55 54 52 52 52 52 53 55 57 59 60 61 62 62 62 62 62 61 59 57 54 52 49 48 48 49 50 51 51 51 51 50 49 47 45 43 42 44 46 48 49 53 57 60 63 63 62 62 61 62 64 65 66 65 64 64 64 61 56 50 46 43 39 36 33 35 39 44 48 52 54 56 56 58 62 68 74 76 78 79
55 53 52 54 56 58 58 57 56 55 54 53 52 53 55 57 59 60 61 61 61 61 60 58 55 53 52 49 47 46 45 45 45 47 49 52 54 56 56 54 51 47 44 42 42 43 45 48 52 56 61 61 61 61 60 60 61 62 63 63 63 63 64 65 62 56 50 45 41 36 32 34 37 42 46 49 53 56 57 58 60 64 69 73 76 77
57 56 54 54 57 59 61 61 61 59 57 55 54 54 55 57 59 60 61 62 61 60 57 55 53 53 53 51 49 48 46 45 46 48 51 55 58 60 61 59 57 53 49 45 42 41 41 43 46 49 54 58 59 59 58 58 58 59 60 59 59 60 63 65 65 63 58 55 52 49 45 44 46 49 50 51 54 58 60 60 60 62 65 69 72 74
59 58 56 55 56 59 62 63 63 63 61 60 59 58 58 59 60 61 62 61 60 58 56 53 53 54 56 55 55 54 53 53 54 55 56 57 58 59 60 60 58 56 54 50 46 43 40 40 41 44 47 51 54 56 56 56 56 56 57 57 57 56 56 58 62 65 65 63 61 59 57 54 53 53 54 55 57 60 63 64 64 64 64 66 67 69
60 60 58 56 56 58 60 63 65 65 65 65 64 63 62 62 62 62 61 60 58 57 55 55 56 58 59 60 60 62 64 64 64 63 62 60 59 59 60 61 61 61 60 58 54 50 44 41 39 39 42 44 46 48 48 50 51 53 53 54 54 54 53 52 56 61 66 65 63 61 60 57 55 54 55 56 58 61 65 67 68 68 67 67 68 69
62 61 60 58 57 57 59 62 65 66 67 67 66 66 64 64 63 62 60 59 58 57 57 59 61 63 64 64 65 68 70 70 69 67 65 63 60 59 59 60 61 62 63 63 61 59 55 48 42 38 37 39 40 42 42 43 45 46 47 48 50 51 52 51 52 56 63 64 63 62 61 58 56 55 56 56 58 60 64 68 70 72 72 73 73 75
63 63 62 60 58 58 58 61 64 66 67 67 67 66 65 63 62 61 59 59 59 60 61 64 66 67 67 68 69 70 72 71 69 67 66 63 61 58 56 57 58 60 61 62 62 62 61 56 50 43 38 37 37 38 40 41 42 42 42 42 44 47 49 49 50 53 59 61 62 62 61 59 58 57 57 56 57 58 61 65 68 71 73 75 78 79
63 64 64 62 60 59 58 61 63 65 67 67 67 66 64 63 61 60 60 61 62 63 65 67 68 69 70 71 72 73 74 73 71 70 68 66 63 60 57 56 56 57 59 62 63 64 64 62 60 56 51 47 45 43 43 43 43 43 41 40 41 44 48 50 51 52 55 59 61 61 59 58 58 59 59 58 57 57 59 62 65 68 71 74 77 80